Sauk Centre, MN

1:16 AM CST on December 15, 2017 (GMT -0600)
Sauk Centre

Weather History for KD39 - October, 2013

Change the Weather History Date:

Wednesday, October 23, 2013

  Actual Average (KGHW) Record (KGHW)
Temperature  
Mean Temperature 32 °F -  
Max Temperature 37 °F 57 °F 77 °F (1963)
Min Temperature 25 °F 34 °F 19 °F (1981)
Degree Days  
Heating Degree Days 34    
Moisture  
Dew Point 22 °F    
Average Humidity 68    
Maximum Humidity 92    
Minimum Humidity 49    
Precipitation  
Precipitation 0.00 in - - ()
Sea Level Pressure  
Sea Level Pressure 30.04 in    
Wind  
Wind Speed 8 mph (NW)    
Max Wind Speed 21 mph    
Max Gust Speed 28 mph    
Visibility 10 miles    
Events      
Averages and records for this station are not official NWS values.
T = Trace of Precipitation, MM = Missing Value Source: NWS Daily Summary

Daily Weather History Graph

Daily Weather History Graph

Search for Another Location

Airport or City:

Trip Planner

Search our weather history database for the weather conditions in past years. The results will help you decide how hot, cold, wet, or windy it might be!

Date:

Astronomy

Oct. 23, 2013 Rise Set
Actual Time 7:47 AM CDT 6:19 PM CDT
Civil Twilight 7:17 AM CDT 6:50 PM CDT
Nautical Twilight 6:42 AM CDT 7:24 PM CDT
Astronomical Twilight 6:07 AM CDT 7:59 PM CDT
Moon 9:44 PM CDT (10/23) 12:13 PM CDT (10/23)
Length of Visible Light 11h 33m
Length of Day
10h 32m
Waning Gibbous, 79% of the Moon is Illuminated
Oct 23
Waning Gibbous
Oct 26
Last Quarter
Nov 3
New
Nov 9
First Quarter
Nov 17
Full

Hourly Weather History & Observations

Time (CDT) Temp. Windchill Dew Point Humidity Pressure Visibility Wind Dir Wind Speed Gust Speed Precip Events Conditions
12:11 AM 31.6 °F 28.3 °F 27.3 °F 84% 30.02 in 10.0 mi West 3.5 mph - N/A   Overcast
12:30 AM 31.5 °F 26.8 °F 27.1 °F 84% 30.01 in 10.0 mi West 4.6 mph - N/A   Overcast
12:51 AM 31.1 °F 26.4 °F 27.1 °F 85% 30.01 in 10.0 mi West 4.6 mph - N/A   Overcast
1:11 AM 30.0 °F 24.1 °F 26.4 °F 86% 30.01 in 10.0 mi West 5.8 mph - N/A   Overcast
1:30 AM 29.1 °F 23.0 °F 25.7 °F 87% 30.01 in 10.0 mi West 5.8 mph - N/A   Scattered Clouds
1:51 AM 28.4 °F 23.3 °F 25.7 °F 90% 30.01 in 10.0 mi West 4.6 mph - N/A   Mostly Cloudy
2:11 AM 29.3 °F 24.3 °F 26.2 °F 88% 30.01 in 10.0 mi West 4.6 mph - N/A   Overcast
2:30 AM 29.1 °F 24.1 °F 25.7 °F 87% 30.01 in 10.0 mi West 4.6 mph - N/A   Mostly Cloudy
2:51 AM 28.9 °F 25.2 °F 25.9 °F 88% 30.01 in 10.0 mi West 3.5 mph - N/A   Overcast
3:11 AM 28.4 °F 24.6 °F 25.9 °F 90% 30.00 in 10.0 mi West 3.5 mph - N/A   Overcast
3:30 AM 28.4 °F - 26.1 °F 91% 30.00 in 10.0 mi Calm Calm - N/A   Overcast
3:51 AM 28.6 °F 23.5 °F 26.1 °F 90% 30.00 in 10.0 mi West 4.6 mph - N/A   Overcast
4:11 AM 29.1 °F 24.1 °F 26.6 °F 90% 30.00 in 10.0 mi West 4.6 mph - N/A   Overcast
4:30 AM 29.5 °F 23.4 °F 27.3 °F 92% 30.00 in 10.0 mi West 5.8 mph - N/A   Overcast
4:51 AM 30.0 °F 24.1 °F 27.5 °F 90% 29.99 in 10.0 mi West 5.8 mph - N/A   Overcast
5:11 AM 30.2 °F 24.3 °F 27.5 °F 90% 29.99 in 10.0 mi West 5.8 mph - N/A   Overcast
5:30 AM 30.2 °F 24.3 °F 27.9 °F 91% 30.00 in 10.0 mi West 5.8 mph - N/A   Overcast
5:51 AM 30.6 °F 25.8 °F 27.9 °F 90% 30.00 in 10.0 mi West 4.6 mph - N/A   Overcast
6:11 AM 30.9 °F 26.2 °F 28.2 °F 90% 30.00 in 10.0 mi WNW 4.6 mph - N/A   Overcast
6:30 AM 31.1 °F 26.4 °F 26.8 °F 84% 30.00 in 10.0 mi WNW 4.6 mph - N/A   Overcast
6:51 AM 31.3 °F 25.6 °F 25.7 °F 80% 30.00 in 10.0 mi WNW 5.8 mph - N/A   Overcast
7:10 AM 31.6 °F 24.4 °F 23.2 °F 71% 30.00 in 10.0 mi WNW 8.1 mph - N/A   Overcast
7:31 AM 31.3 °F 22.7 °F 22.3 °F 69% 30.01 in 10.0 mi WNW 10.4 mph - N/A   Overcast
7:51 AM 31.5 °F 22.9 °F 20.3 °F 63% 30.01 in 10.0 mi NW 10.4 mph - N/A   Overcast
8:10 AM 31.6 °F 23.1 °F 19.2 °F 60% 30.01 in 10.0 mi NW 10.4 mph - N/A   Overcast
8:31 AM 31.5 °F 23.5 °F 19.8 °F 62% 30.02 in 10.0 mi NW 9.2 mph - N/A   Overcast
8:51 AM 31.5 °F 24.2 °F 20.3 °F 63% 30.02 in 10.0 mi WNW 8.1 mph - N/A   Overcast
9:10 AM 31.5 °F 23.5 °F 19.9 °F 62% 30.02 in 10.0 mi NW 9.2 mph - N/A   Overcast
9:31 AM 31.6 °F 23.7 °F 20.3 °F 63% 30.03 in 10.0 mi NW 9.2 mph - N/A   Overcast
9:51 AM 31.8 °F 22.8 °F 20.1 °F 62% 30.03 in 10.0 mi NNW 11.5 mph - N/A   Overcast
10:10 AM 32.0 °F 22.5 °F 19.9 °F 61% 30.04 in 10.0 mi NW 12.7 mph 18.4 mph N/A   Overcast
10:31 AM 31.6 °F 21.6 °F 19.9 °F 62% 30.04 in 10.0 mi NNW 13.8 mph - N/A   Overcast
10:51 AM 31.5 °F 20.9 °F 18.9 °F 60% 30.04 in 10.0 mi NW 15.0 mph - N/A   Overcast
11:10 AM 31.6 °F 20.0 °F 18.0 °F 57% 30.05 in 10.0 mi NW 18.4 mph - N/A   Overcast
11:31 AM 31.8 °F 21.4 °F 18.1 °F 57% 30.05 in 10.0 mi NW 15.0 mph 21.9 mph N/A   Overcast
11:51 AM 32.0 °F 21.2 °F 17.8 °F 56% 30.05 in 10.0 mi NNW 16.1 mph 21.9 mph N/A   Overcast
12:10 PM 32.2 °F 21.8 °F 18.5 °F 57% 30.05 in 10.0 mi NW 15.0 mph 20.7 mph N/A   Overcast
12:31 PM 32.4 °F 22.1 °F 18.5 °F 57% 30.05 in 10.0 mi NNW 15.0 mph - N/A   Overcast
12:51 PM 32.7 °F 23.4 °F 18.3 °F 55% 30.05 in 10.0 mi NW 12.7 mph 19.6 mph N/A   Overcast
1:10 PM 32.9 °F 23.7 °F 18.7 °F 56% 30.04 in 10.0 mi NNW 12.7 mph 19.6 mph N/A   Overcast
1:31 PM 34.5 °F 25.3 °F 18.9 °F 53% 30.04 in 10.0 mi NW 13.8 mph 24.2 mph N/A   Mostly Cloudy
1:50 PM 34.5 °F 24.8 °F 19.0 °F 53% 30.04 in 10.0 mi NNW 15.0 mph 18.4 mph N/A   Mostly Cloudy
2:10 PM 34.9 °F 25.3 °F 19.2 °F 53% 30.04 in 10.0 mi NW 15.0 mph 21.9 mph N/A   Mostly Cloudy
2:31 PM 34.9 °F 24.6 °F 18.7 °F 52% 30.04 in 10.0 mi NW 17.3 mph - N/A   Mostly Cloudy
2:51 PM 36.0 °F 26.0 °F 19.8 °F 52% 30.03 in 10.0 mi NNW 17.3 mph 20.7 mph N/A   Mostly Cloudy
3:10 PM 35.8 °F 26.1 °F 19.2 °F 51% 30.04 in 10.0 mi NW 16.1 mph 25.3 mph N/A   Overcast
3:31 PM 37.8 °F 29.4 °F 19.9 °F 49% 30.04 in 10.0 mi NNW 13.8 mph 24.2 mph N/A   Overcast
3:51 PM 36.9 °F 28.7 °F 19.0 °F 49% 30.04 in 10.0 mi NNW 12.7 mph 23.0 mph N/A   Overcast
4:10 PM 36.0 °F 26.3 °F 19.6 °F 51% 30.04 in 10.0 mi NNW 16.1 mph - N/A   Overcast
4:31 PM 35.2 °F 24.4 °F 19.2 °F 52% 30.05 in 10.0 mi NW 19.6 mph 24.2 mph N/A   Overcast
4:51 PM 35.1 °F 24.8 °F 19.6 °F 53% 30.06 in 10.0 mi NW 17.3 mph 21.9 mph N/A   Overcast
5:10 PM 34.7 °F 24.0 °F 19.6 °F 54% 30.06 in 10.0 mi NNW 18.4 mph 21.9 mph N/A   Overcast
5:31 PM 34.5 °F 25.3 °F 19.2 °F 54% 30.07 in 10.0 mi NNW 13.8 mph - N/A   Overcast
5:51 PM 34.2 °F 26.8 °F 20.1 °F 57% 30.07 in 10.0 mi NW 9.2 mph 19.6 mph N/A   Overcast
6:10 PM 34.2 °F 24.8 °F 20.1 °F 57% 30.07 in 10.0 mi NNW 13.8 mph 20.7 mph N/A   Overcast
6:31 PM 34.0 °F 25.5 °F 20.8 °F 59% 30.07 in 10.0 mi NW 11.5 mph - N/A   Overcast
6:51 PM 34.0 °F 26.6 °F 21.4 °F 60% 30.08 in 10.0 mi NW 9.2 mph - N/A   Overcast
7:10 PM 34.0 °F 25.5 °F 21.9 °F 61% 30.08 in 10.0 mi NW 11.5 mph 19.6 mph N/A   Overcast
7:31 PM 33.8 °F 23.9 °F 21.7 °F 61% 30.09 in 10.0 mi NNW 15.0 mph 19.6 mph N/A   Overcast
7:51 PM 33.3 °F 23.2 °F 21.2 °F 61% 30.09 in 10.0 mi NNW 15.0 mph 24.2 mph N/A   Overcast
8:10 PM 32.7 °F 20.7 °F 20.1 °F 60% 30.09 in 10.0 mi NNW 20.7 mph 27.6 mph N/A   Overcast
8:31 PM 32.0 °F 22.1 °F 18.3 °F 57% 30.10 in 10.0 mi NW 13.8 mph 21.9 mph N/A   Overcast
8:50 PM 31.1 °F 19.3 °F 17.6 °F 57% 30.11 in 10.0 mi NNW 18.4 mph - N/A   Overcast
9:11 PM 30.6 °F 21.2 °F 18.0 °F 60% 30.11 in 10.0 mi NNW 11.5 mph 18.4 mph N/A   Overcast
9:30 PM 30.2 °F 21.3 °F 18.3 °F 61% 30.11 in 10.0 mi NNW 10.4 mph - N/A   Overcast
9:50 PM 29.5 °F 21.1 °F 18.3 °F 63% 30.12 in 10.0 mi NNW 9.2 mph - N/A   Mostly Cloudy
10:11 PM 29.1 °F 21.3 °F 18.5 °F 65% 30.12 in 10.0 mi NNW 8.1 mph - N/A   Scattered Clouds
10:30 PM 27.5 °F 21.1 °F 18.9 °F 70% 30.13 in 10.0 mi NW 5.8 mph - N/A   Scattered Clouds
10:50 PM 26.6 °F 21.2 °F 19.2 °F 74% 30.13 in 10.0 mi NW 4.6 mph - N/A   Scattered Clouds
11:11 PM 26.1 °F 21.9 °F 19.4 °F 76% 30.13 in 10.0 mi WNW 3.5 mph - N/A   Mostly Cloudy
11:30 PM 26.4 °F 20.9 °F 19.0 °F 74% 30.13 in 10.0 mi NW 4.6 mph - N/A   Scattered Clouds
11:50 PM 25.5 °F 21.3 °F 19.8 °F 79% 30.13 in 10.0 mi West 3.5 mph - N/A   Clear